STARLINK-1657, 46354

Orbit data source: Space-Track

STARLINK-1657, 46354 is a payload satellite owned by SpaceX/Seattle (US) in LEO that was launched on Thu, 03 Sep 2020 UTC via an FALCON 9 launch vehicle from the Air Force Eastern Test Range (AFETR). Payload-class satellites include a variety of spacecraft equipped with specific instruments for various scientific and technological missions. These include communications satellites like Starlink; space stations such as the ISS; scientific satellites like the Hubble; Earth observation satellites from companies like Planet Labs, Umbra, and HawkEye 360; GPS; miniature CubeSats for education and research; and military/defense satellites.

Loading next visibility...
Identifier
46354, 2020-062AF
Orbit
LEO
Country
Flag of USUS
Related business
Manufacturer
SpaceX/Seattle
Mission
Partially operational Commercial Communications
Bus & Motor
STARLINK, Unknown motor
Mass
260 kg wet, ~248 kg dry
Launch date (UTC)
2020-09-03 (5 years ago)
Launch vehicle
FALCON 9
Launch site
Air Force Eastern Test Range (AFETR)
Object type
Payload
Rocket body
Debris
Shape & HBR
Box + 1 Pan, 10.1 m
Radar Cross Section
13.562 m², Large (>1 m²)

Expand to show TLE details & history
Last TLE update: 1 day ago

TLE from 1 day ago
0 STARLINK-1657
1 46354U 20062AF  25348.39693074  .00037130  00000-0  74547-3 0  9999
2 46354  53.0513  25.9920 0009447   1.7787 358.3252 15.46292929291641
Epoch: 2025-12-14T09:31Z
TLE epoch observation values (Epoch: 2025-12-14T09:31:34.815Z)
Latitude
0.00001°
Longitude
159.7865°
Altitude
422.049 km
Speed
7.663 km/s
True Right ascension
01h 43m 58s
True Declination
0° 00' 00"
Sunlit
Object was in full shadow at epoch
Visualization orbit readout
Latitude
Unknown
Longitude
Unknown
Altitude
Unknown
Speed
Unknown
Apparent Right ascension
Unknown
Apparent Declination
Unknown
Sunlit
N/A
Visualization observer readout
Local Sidereal Time
12:03:36
Azimuth
Unknown
Elevation
Unknown
Doppler factor
Unknown
Orbital elements
Apogee altitude
434.287 km
Perigee altitude
421.428 km
Semi-major axis
6,805.995 km
Eccentricity
0.00094
Inclination
53.0513°
RAAN
25.992°
Arg. of periapsis
1.7787°
True anomaly
358.32203°
Mean anomaly
358.3252°
Eccentric anomaly
358.32362°
Mean motion
3.8655 °/min
Orbital period
93.13 mins
BSTAR
0.00074547
Loading maneuver chart data...
Computing Atmospheric mass density...
Loading historical data...
Loading historical data...
Loading historical data...
Loading historical data...
Loading historical data...
Loading historical data...
Loading historical data...

Documentation

Showing up to 5 results
|